Location: Kerbel
(47.7000°N, 3.3333°W)
Time: 01:25:04
(UTC+00:00)

Daily predictions for brighter satellites

Satellite Brightness Start Highest point End
(mag) Time Altitude Azimuth Time Altitude Azimuth Time Altitude Azimuth
USA 215 4.4 00:20:21 36° NW 00:20:21 36° NW 00:24:02 10° NW
ATLAS 2AS CENTAUR R/B 4.5 00:53:23 18° WNW 00:57:21 28° NNW 01:03:24 10° NE
SL-16 R/B 3.7 01:19:18 37° ENE 01:19:18 37° ENE 01:24:46 10° N
Cosmos 2369 Rocket 4.5 01:21:55 16° ENE 01:21:55 16° ENE 01:23:47 10° ENE
ADEOS II 4.3 01:18:15 10° NE 01:20:29 18° ENE 01:20:29 18° ENE
Cosmos 2082 Rocket 4.5 01:27:16 10° NW 01:28:15 15° NW 01:28:15 15° NW
Lacrosse 4 Rocket 4.4 01:46:01 13° N 01:46:01 13° N 01:46:42 10° N
Cosmos 2278 Rocket 3.7 01:47:12 31° N 01:47:12 31° N 01:50:34 10° NNE
Cosmos 1943 Rocket 3.5 01:48:36 37° NNE 01:48:36 37° NNE 01:51:57 10° NNE
CZ-2D R/B 3.4 01:53:46 10° NNE 01:57:00 37° NNE 01:57:00 37° NNE
Resurs 1-4 Rocket 3.3 01:55:53 10° NNE 01:59:10 38° NNE 01:59:10 38° NNE
Nadezhda 1 Rocket 4.5 02:00:03 10° N 02:05:10 58° NNE 02:05:10 58° NNE
IDEFIX/ARIANE 42P 3.7 02:08:27 10° NNE 02:11:53 41° NE 02:11:53 41° NE
Cosmos 2297 4.3 02:24:19 55° NNE 02:24:19 55° NNE 02:28:46 10° NNE
SeaSat 1 3.9 02:18:27 10° NE 02:21:50 32° E 02:21:50 32° E
ATLAS CENTAUR R/B 3.5 02:27:11 27° ENE 02:27:11 27° ENE 02:29:16 10° NE
Lacrosse 5 3.0 02:29:14 41° NE 02:29:14 41° NE 02:32:33 10° NE
MSX 4.2 02:22:03 10° NNE 02:27:03 62° NE 02:27:03 62° NE
Cosmos 2285 Rocket 4.1 02:31:11 68° E 02:31:11 68° E 02:37:08 10° NNE
ATLAS 5 CENTAUR R/B 3.6 02:33:43 22° NNE 02:33:43 22° NNE 02:35:29 10° NNE
Cosmos 1745 Rocket 4.0 02:45:15 70° NNW 02:45:15 70° NNW 02:50:49 10° N
Cosmos 1709 Rocket 3.8 02:55:58 81° SSE 02:56:16 86° E 03:02:28 10° N
Cosmos 2181 Rocket 4.5 02:50:21 10° N 02:56:43 60° ENE 03:00:36 25° SSE
Okean 3 Rocket 4.5 02:54:31 10° N 02:58:24 46° ENE 02:58:24 46° ENE
ADEOS II 2.5 02:57:05 10° N 03:01:25 52° NNW 03:01:25 52° NNW
SL-16 R/B 3.3 03:04:22 37° WNW 03:04:22 37° WNW 03:08:35 10° NNW
Cosmos 2369 Rocket 2.1 03:03:42 75° NNW 03:03:42 75° NNW 03:09:06 10° NNE
Thor Agena Rocket 4.0 02:59:16 10° N 03:03:16 48° NNW 03:03:16 48° NNW
Cosmos 921 Rocket 3.8 03:05:51 49° N 03:05:51 49° N 03:09:13 10° NNE
Cosmos 1833 4.1 03:07:27 10° NNW 03:13:12 82° WSW 03:13:40 74° S
CZ-2C R/B 3.7 03:09:42 10° NNE 03:14:07 36° E 03:16:12 25° SE
BREEZE-M DEB (TANK) 4.0 03:17:33 50° SW 03:19:24 72° SSE 03:23:04 10° ENE
NOSS 3-3 (A) 3.7 03:18:44 64° S 03:19:36 78° SE 03:26:05 10° NE
NOSS 3-3 (C) 3.7 03:18:50 64° S 03:19:43 77° SE 03:26:11 10° NE
Cosmos 1656 Rocket 3.7 03:20:51 58° WNW 03:20:54 58° WNW 03:26:21 10° NNE
Meteor 1-20 Rocket 4.2 03:15:24 10° NNW 03:20:28 60° WNW 03:20:28 60° WNW
Cosmos 1842 Rocket 4.2 03:21:11 47° ESE 03:21:48 51° E 03:26:02 10° NNE
FENGYUN 3A 3.6 03:16:47 10° NNE 03:22:16 86° ESE 03:23:11 63° S
ERS-2 4.1 03:21:01 10° N 03:22:22 21° N 03:22:22 21° N
CZ-2C R/B 2.9 03:19:31 12° SSE 03:24:36 70° ENE 03:30:08 10° N
Cosmos 1538 Rocket 4.0 03:24:43 67° WNW 03:24:54 68° WNW 03:30:17 10° NNE
Meteor 2-2 Rocket 4.3 03:25:33 59° W 03:25:57 60° WNW 03:31:51 10° N
Cosmos 1943 Rocket 3.8 03:30:06 20° NW 03:30:47 21° NW 03:34:59 10° N
Cosmos 2278 Rocket 4.5 03:29:01 10° NW 03:30:54 12° NNW 03:32:52 10° N
IRS-1D 3.4 03:26:19 10° NNE 03:31:18 85° ESE 03:32:11 61° S
Timation 1 Rocket 4.3 03:26:50 10° NNW 03:32:54 86° ENE 03:38:54 10° SSE
Cosmos 1812 3.6 03:35:02 40° NNW 03:35:02 40° NNW 03:37:36 10° N
ALOS 2.1 03:30:31 10° NNE 03:35:12 89° E 03:35:46 69° SSW
ARGOS Delta rocket 3.5 03:36:53 77° W 03:36:53 77° W 03:41:12 10° NNW
Cosmos 2056 Rocket 4.2 03:32:14 10° NNW 03:37:20 53° ENE 03:42:28 10° SE
CZ-2D R/B 3.6 03:34:44 10° NNW 03:38:19 21° NW 03:38:19 21° NW
Resurs 1-4 Rocket 3.7 03:36:44 10° NNW 03:40:15 20° NW 03:40:15 20° NW
Cosmos 1500 Rocket 4.5 03:36:36 10° N 03:40:47 47° ENE 03:44:58 10° SSE
Cosmos 2074 Rocket 4.2 03:37:02 21° S 03:41:22 71° E 03:47:38 10° NNE
Cosmos 1867 3.4 03:38:27 10° NW 03:43:53 67° WSW 03:49:15 10° SSE
Cosmos 1624 Rocket 4.4 03:44:20 10° NNW 03:49:39 67° ENE 03:54:55 10° SSE
USA 276 3.8 03:51:00 25° ESE 03:51:00 25° ESE 03:52:43 10° E
Cosmos 1420 Rocket 4.3 03:46:55 10° NNW 03:52:06 67° ENE 03:57:16 10° SSE
IDEFIX/ARIANE 42P 4.0 03:48:57 10° NNW 03:52:41 21° WNW 03:52:41 21° WNW
Cosmos 2221 2.9 03:56:24 44° WNW 03:56:24 44° WNW 04:00:29 10° N
Meteor 1-14 Rocket 4.4 03:51:43 10° N 03:57:16 72° ENE 04:02:50 10° SSE
CBERS-1 4.0 03:53:52 10° NNE 03:59:01 81° ESE 04:02:10 24° S
SeaSat 1 3.1 03:55:57 10° NNE 04:00:30 38° NW 04:01:35 34° W
Orbus 7S? 4.4 03:54:11 10° NW 04:02:26 65° NNE 04:06:07 10° ESE
ATLAS CENTAUR R/B 2.8 04:02:53 26° WNW 04:03:39 27° NW 04:07:22 10° NNE
Cosmos 1461 4.0 04:01:55 24° S 04:04:10 43° ESE 04:08:30 10° NE
USA 281 4.3 03:58:30 10° ESE 04:04:39 45° NE 04:10:50 10° NNW
Cosmos 44 4.0 04:08:15 31° WNW 04:09:19 35° NW 04:13:40 10° NNE
Lacrosse 5 3.0 04:08:25 22° WNW 04:10:55 35° NNW 04:15:35 10° NE
PAYLOAD A 4.0 04:08:24 10° N 04:13:46 75° WNW 04:17:11 22° SSW
Cosmos 1782 3.8 04:15:00 28° WNW 04:15:00 28° WNW 04:18:08 10° NNW
SL-27 R/B 2.0 04:12:48 10° NNW 04:16:00 85° WSW 04:19:10 10° SSE
GEOS 3 Rocket 3.5 04:11:31 10° SSE 04:16:42 69° SW 04:22:01 10° NW
ATLAS 5 CENTAUR R/B 3.8 04:15:05 10° NW 04:17:09 13° NNW 04:19:22 10° NNE
Cosmos 1151 Rocket 4.4 04:15:07 10° SSE 04:19:09 39° E 04:23:10 10° NNE
NOSS 2-1 (E) 4.3 04:16:36 10° NW 04:20:47 64° NE 04:26:40 10° SE
Meteor 1-5 Rocket 4.4 04:17:36 10° NNW 04:23:07 50° W 04:28:44 10° SSW
Envisat 3.0 04:20:29 10° NNE 04:25:36 82° ESE 04:30:41 10° SSW
IRS-1C 4.3 04:24:22 10° NNE 04:29:43 74° ESE 04:35:02 10° S
DELTA 2 R/B (1) 4.4 04:27:19 23° SW 04:29:58 36° S 04:35:03 10° ESE
Cosmos 1408 Rocket 4.2 04:26:47 10° NNW 04:30:51 35° W 04:32:58 22° SW
YAOGAN 6 2.4 04:29:42 10° N 04:33:13 70° WNW 04:35:38 19° SSW
METEOR-M 4.3 04:30:25 10° N 04:35:37 53° WNW 04:39:46 16° SW
SL-19 R/B 4.0 04:30:31 10° NNE 04:35:48 84° WNW 04:41:00 10° SSW
Sich 1 2.9 04:31:52 10° NNW 04:36:17 75° W 04:40:39 10° S
COSMOS 2455 3.8 04:31:04 10° S 04:36:47 47° ESE 04:42:33 10° NE
Cosmos 2184 Rocket 4.2 04:34:22 16° SW 04:39:10 47° WNW 04:45:08 10° N
Cosmos 1437 Rocket 4.2 04:35:30 10° N 04:39:11 40° ENE 04:42:46 10° SE
ADEOS II 4.1 04:39:35 10° NW 04:40:52 11° NW 04:42:10 10° WNW
Cosmos 405 Rocket 3.9 04:38:53 10° SSE 04:42:16 40° E 04:45:43 10° NNE
Helios 1A 3.9 04:42:07 21° SW 04:43:39 26° W 04:47:10 10° NW
ATLAS 2AS CENTAUR R/B 4.0 04:37:05 10° NW 04:43:44 40° NNE 04:50:00 10° ESE
Cosmos 1743 Rocket 3.9 04:41:13 10° NNW 04:45:28 44° W 04:49:42 10° SSW
Cosmos 1536 3.1 04:42:47 10° N 04:46:45 70° E 04:50:42 10° SSE
SAR-Lupe-2 3.5 04:44:06 10° N 04:47:41 69° WNW 04:51:14 10° SSW
Cosmos 2369 Rocket 3.9 04:45:29 12° WNW 04:48:27 18° NW 04:52:13 10° N
Cosmos 1633 Rocket 3.8 04:44:58 10° N 04:49:21 56° ENE 04:53:40 10° SSE
ERS-1 4.5 04:44:38 10° NNE 04:49:40 88° ESE 04:54:37 10° SSW
CZ-2C R/B 3.2 04:48:02 10° N 04:52:15 32° WNW 04:55:34 15° WSW
CZ-2C R/B 3.2 04:47:56 10° N 04:52:29 47° WNW 04:57:08 10° SW
Cosmos 2297 Rocket 2.3 04:47:26 10° NNW 04:53:08 83° ENE 04:58:49 10° SSE
H-2A R/B 2.6 04:53:12 10° NNE 04:56:50 83° E 05:00:24 10° SSW
CZ-2D R/B 3.5 04:53:39 10° NNE 04:57:57 89° WNW 05:02:07 10° SSW
NOAA 11 4.2 04:52:46 10° NNE 04:58:14 84° WNW 05:03:41 10° SSW
Cosmos 1484 Rocket 2.9 04:54:52 10° N 04:58:30 50° WNW 05:02:10 10° SSW
Cosmos 1680 Rocket 4.3 04:56:35 15° WSW 05:00:20 34° WNW 05:05:09 10° N
Meteor 1-11 Rocket 3.6 04:55:25 10° NNW 05:01:01 77° W 05:06:31 10° S
Cosmos 2154 Rocket 4.4 04:55:53 10° SW 05:01:49 43° WNW 05:07:45 10° N
NOSS 3-4 (A) 4.1 04:55:29 10° NW 05:02:14 51° WSW 05:09:50 10° SSE
NOSS 3-4 (C) 4.1 04:55:35 10° NW 05:02:20 51° WSW 05:09:57 10° SSE
CZ-2C R/B 4.0 05:01:25 10° SW 05:05:23 20° W 05:09:21 10° NW
Cosmos 1515 4.4 05:04:16 10° SW 05:07:39 33° WNW 05:11:02 10° N
IRS-P3 4.2 05:02:48 10° N 05:08:05 64° WNW 05:13:20 10° SSW
Genesis I 3.9 05:05:20 14° WSW 05:08:20 38° NW 05:12:01 10° NNE
Cosmos 2219 4.1 05:02:46 10° NNW 05:08:20 53° ENE 05:13:52 10° SE
Cosmos 2227 Rocket 2.6 05:03:58 10° NNW 05:09:38 70° ENE 05:15:15 10° SE
ARIANE 5 R/B 2.7 05:05:30 10° N 05:10:35 58° WNW 05:15:41 10° SSW
GP-B 3.2 05:07:21 10° N 05:11:43 56° W 05:16:02 10° SSW
ALOS 4.2 05:09:33 10° NNW 05:11:51 14° WNW 05:14:07 10° W
NOSS 2-1 (C) 4.1 05:08:01 10° NW 05:12:17 53° SW 05:18:14 10° SSE
NOSS 2-1 (D) 4.2 05:13:03 10° NW 05:17:19 49° SW 05:23:11 10° SSE
H-2A R/B 3.5 05:14:26 10° NNE 05:19:04 40° E 05:23:39 10° SSE
Cosmos 1470 Rocket 3.8 05:18:33 10° N 05:22:59 76° E 05:27:21 10° SSE
Cosmos 2218 Rocket 4.1 05:16:57 10° S 05:23:18 85° W 05:29:44 10° N
COSMO-SKYMED 1 2.6 05:20:08 10° SSE 05:24:29 90° NW 05:28:52 10° NNW
Spot 4 Rocket 4.1 05:19:24 10° NNE 05:24:35 90° NE 05:29:45 10° SSW
USA 276 2.0 05:22:21 10° W 05:25:11 65° NNW 05:28:06 10° ENE
Helios 1B rocket 2.6 05:21:25 10° N 05:25:19 51° WNW 05:29:11 10° SSW
Cosmos 1378 3.0 05:23:06 10° SSW 05:26:38 63° W 05:30:12 10° N
